Voltar ao catálogo

COSMOS 568

AtivoMilitarLEO
NORAD 6679·PAYLOAD·🇷🇺 Russia

Lançado Jun 8, 1973 de Plesetsk Cosmodrome

Loading…

Próximas Passagens (próximas 24 horas)

TLE

AtualizadoSource: Space-Track

Época: Sep 14, 2026, 15:18 UTC

1  6679U 73037E   26257.63787756 -.00000001  00000-0  92681-4 0  9991
2  6679  74.0169 122.0678 0067949 283.8121 104.1391 12.58955235448025

Acompanhe COSMOS 568 em tempo real com AllMySat

Download on the App Store